Location: Kott?ru
(16.6209°N, 80.6208°E)
Time: 16:35:33
(UTC+00:00)

FUSE - Pass Details

Date: 18 September 2020
Orbit: 742 x 756 km, 25.0° (Epoch: 20 October)

Event Time Altitude Azimuth Distance (km) Brightness Sun altitude
Exits shadow 23:42:25 12° 291° (WNW) 2,139 5.8 -11.3°
Maximum altitude 23:47:28 86° 18° (NNE) 756 4.0 -10.1°
Drops below altitude 10° 23:52:52 10° 109° (ESE) 2,265 7.7 -8.8°
Sets 23:55:20 0° 110° (ESE) 3,189 8.6 -8.2°
